Tracking 31027 objects as of 19-Jul-2025
HD Live streaming from Space Station
objects crossing your sky now

STARLINK-5860

Track STARLINK-5860 now!
10-day predictions
STARLINK-5860 is classified as:


NORAD ID: 57052
Int'l Code: 2023-088E
Perigee: 565.1 km
Apogee: 567.3 km
Inclination: 43.0 °
Period: 95.8 minutes
Semi major axis: 6937 km
RCS: Unknown
Launch date: June 22, 2023
Source: United States (US)
Launch site: AIR FORCE WESTERN TEST RANGE (AFWTR)
Your satellite tracking list
SL-12 R/B(AUX MOTOR)
Track 1 satellite(s)




NASA's NSSDC Master Catalog

Two Line Element Set (TLE):
1 57052U 23088E   25199.33581218 -.00000059  00000-0  10718-4 0  9993
2 57052  43.0036 301.1685 0001599 269.2257  90.8402 15.02532401115113
Source of the keplerian elements: AFSPC